GW4847 Weather Reports


Display with metric or nautical units.
time (UTC)temp
F
wind
direction
speed
MPH
gust
MPH
rain 1hr
in
rain 24hr
in
rain mn
in
humidity
%
barometer
mb
20260508054701 63 47 1.0 2.0 0.00 0.00 0.00 79 1018.0
20260508054201 64 143 0.0 0.0 0.00 0.00 0.00 79 1018.0
20260508053702 64 143 0.0 0.0 0.00 0.00 0.00 79 1018.0
20260508053202 64 304 1.0 3.0 0.00 0.00 0.00 78 1018.0
20260508052701 64 17 1.0 3.0 0.00 0.00 0.00 77 1018.0
20260508052201 64 360 2.0 4.0 0.00 0.00 0.00 77 1018.0
20260508051705 64 8 2.0 4.0 0.00 0.00 0.00 77 1018.0
20260508051201 64 8 3.0 4.0 0.00 0.00 0.00 77 1018.0
20260508050701 64 6 1.0 3.0 0.00 0.00 0.00 78 1018.0
20260508050201 64 297 1.0 2.0 0.00 0.00 0.00 78 1018.0
20260508045701 64 92 1.0 2.0 0.00 0.00 0.00 79 1018.0
20260508045202 64 70 1.0 2.0 0.00 0.00 0.00 79 1018.0
20260508044701 64 83 1.0 2.0 0.00 0.00 0.00 79 1018.0
20260508044202 64 97 2.0 2.0 0.00 0.00 0.00 79 1018.0
20260508043701 64 58 1.0 2.0 0.00 0.00 0.00 79 1018.0
20260508043201 64 53 1.0 2.0 0.00 0.00 0.00 79 1018.0
20260508042703 64 90 1.0 2.0 0.00 0.00 0.00 79 1018.0
20260508042201 64 51 1.0 2.0 0.00 0.00 0.00 79 1018.0
20260508041702 64 100 0.0 0.0 0.00 0.00 0.00 79 1018.0
20260508041201 64 98 1.0 3.0 0.00 0.00 0.00 79 1018.0
20260508040701 64 105 1.0 3.0 0.00 0.00 0.00 79 1018.0
20260508040201 64 79 2.0 3.0 0.00 0.00 0.00 79 1018.0
20260508035701 64 136 3.0 3.0 0.00 0.00 0.00 78 1018.0
20260508035201 64 114 3.0 3.0 0.00 0.00 0.00 78 1018.0
20260508034704 64 66 2.0 3.0 0.00 0.00 0.00 78 1018.0
20260508034202 65 71 2.0 3.0 0.00 0.00 0.00 77 1018.0
20260508033701 65 63 2.0 3.0 0.00 0.00 0.00 77 1018.0
20260508033201 65 57 2.0 3.0 0.00 0.00 0.00 76 1018.0
20260508032701 65 70 1.0 2.0 0.00 0.00 0.00 76 1018.0
20260508032201 65 62 2.0 2.0 0.00 0.00 0.00 76 1018.0
20260508031702 65 62 1.0 3.0 0.00 0.00 0.00 75 1018.0
20260508031202 66 12 1.0 3.0 0.00 0.00 0.00 75 1018.0
20260508030703 66 81 2.0 2.0 0.00 0.00 0.00 75 1018.0
20260508030202 66 11 1.0 3.0 0.00 0.00 0.00 75 1018.0
20260508025702 66 142 0.0 0.0 0.00 0.00 0.00 75 1018.0
20260508025201 66 71 2.0 3.0 0.00 0.00 0.00 74 1018.0
20260508024702 66 144 3.0 3.0 0.00 0.00 0.00 74 1019.0
20260508024202 66 108 2.0 2.0 0.00 0.00 0.00 74 1018.0
20260508023701 66 116 1.0 3.0 0.00 0.00 0.00 74 1019.0
20260508023202 66 81 1.0 3.0 0.00 0.00 0.00 74 1019.0
20260508022701 66 63 2.0 3.0 0.00 0.00 0.00 75 1019.0
20260508022202 66 34 1.0 3.0 0.00 0.00 0.00 75 1019.0
20260508021701 66 32 1.0 3.0 0.00 0.00 0.00 75 1019.0
20260508021201 65 31 2.0 3.0 0.00 0.00 0.00 75 1019.0
20260508020701 65 106 2.0 3.0 0.00 0.00 0.00 76 1019.0
20260508020202 65 41 2.0 3.0 0.00 0.00 0.00 76 1019.0
20260508015702 66 33 2.0 3.0 0.00 0.00 0.00 75 1019.0
20260508015202 66 41 1.0 3.0 0.00 0.00 0.00 75 1019.0
20260508014701 66 18 2.0 2.0 0.00 0.00 0.00 75 1019.0
20260508014202 66 111 1.0 3.0 0.00 0.00 0.00 74 1019.0
20260508013702 66 100 1.0 3.0 0.00 0.00 0.00 74 1019.0
20260508013201 66 116 2.0 4.0 0.00 0.00 0.00 74 1019.0
20260508012702 66 82 1.0 3.0 0.00 0.00 0.00 74 1019.0
20260508012203 67 113 2.0 3.0 0.00 0.00 0.00 74 1019.0
20260508011702 67 168 2.0 3.0 0.00 0.00 0.00 74 1019.0
20260508011201 67 88 2.0 3.0 0.00 0.00 0.00 73 1019.0
20260508010701 67 50 1.0 3.0 0.00 0.00 0.00 73 1019.0
20260508010201 67 103 1.0 3.0 0.00 0.00 0.00 73 1019.0
20260508005705 67 116 2.0 3.0 0.00 0.00 0.00 73 1019.0
20260508005203 67 136 2.0 2.0 0.00 0.00 0.00 73 1019.0
20260508004701 67 147 1.0 3.0 0.00 0.00 0.00 73 1019.0
20260508004201 67 82 2.0 3.0 0.00 0.00 0.00 73 1019.0
20260508003701 67 115 2.0 3.0 0.00 0.00 0.00 73 1019.0
20260508003202 67 126 1.0 3.0 0.00 0.00 0.00 73 1019.0
20260508002701 67 39 1.0 2.0 0.00 0.00 0.00 73 1019.0
20260508002201 67 79 1.0 2.0 0.00 0.00 0.00 73 1019.0
20260508001702 67 107 1.0 2.0 0.00 0.00 0.00 73 1019.0
20260508001201 67 111 2.0 2.0 0.00 0.00 0.00 72 1019.0
20260508000702 67 47 1.0 2.0 0.00 0.00 0.00 73 1019.0
20260508000201 68 82 0.0 0.0 0.00 0.00 0.00 72 1019.0
20260507235702 68 67 1.0 2.0 0.00 0.00 0.00 72 1019.0
20260507235203 68 75 1.0 2.0 0.00 0.00 0.00 72 1019.0
20260507234701 68 85 2.0 2.0 0.00 0.00 0.00 72 1019.0
20260507234202 68 99 2.0 4.0 0.00 0.00 0.00 71 1019.0
20260507233702 68 78 2.0 4.0 0.00 0.00 0.00 71 1019.0
20260507233202 69 121 2.0 2.0 0.00 0.00 0.00 71 1019.0
20260507232701 69 82 1.0 3.0 0.00 0.00 0.00 71 1019.0
20260507232202 69 55 1.0 3.0 0.00 0.00 0.00 70 1019.0
20260507231701 69 102 2.0 2.0 0.00 0.00 0.00 70 1019.0
20260507231202 69 108 2.0 3.0 0.00 0.00 0.00 70 1019.0
20260507230701 69 76 2.0 3.0 0.00 0.00 0.00 70 1019.0
20260507230201 69 63 2.0 3.0 0.00 0.00 0.00 70 1019.0
20260507225702 69 92 2.0 3.0 0.00 0.00 0.00 70 1018.0
20260507225201 69 91 2.0 3.0 0.00 0.00 0.00 70 1018.0
20260507224701 69 51 2.0 3.0 0.00 0.00 0.00 70 1018.0
20260507224202 69 36 2.0 3.0 0.00 0.00 0.00 70 1018.0
20260507223701 70 7 2.0 2.0 0.00 0.00 0.00 69 1019.0
20260507223201 70 117 1.0 3.0 0.00 0.00 0.00 69 1018.0
20260507222702 70 360 1.0 3.0 0.00 0.00 0.00 69 1018.0
20260507222202 70 69 2.0 4.0 0.00 0.00 0.00 68 1018.0
20260507221701 70 99 2.0 4.0 0.00 0.00 0.00 68 1018.0
20260507221201 71 54 3.0 4.0 0.00 0.00 0.00 68 1018.0
20260507220701 71 34 2.0 4.0 0.00 0.00 0.00 67 1018.0
20260507220202 71 83 2.0 3.0 0.00 0.00 0.00 67 1018.0
20260507215701 71 63 1.0 3.0 0.00 0.00 0.00 67 1018.0
20260507215201 71 6 2.0 4.0 0.00 0.00 0.00 67 1018.0
20260507214703 71 93 2.0 3.0 0.00 0.00 0.00 66 1018.0
20260507214202 71 80 3.0 3.0 0.00 0.00 0.00 66 1018.0
20260507213701 71 44 2.0 5.0 0.00 0.00 0.00 65 1018.0
20260507213201 72 59 2.0 5.0 0.00 0.00 0.00 65 1018.0
20260507212701 72 34 4.0 6.0 0.00 0.00 0.00 65 1018.0
20260507211718 72 342 4.0 5.0 0.00 0.00 0.00 64 1018.0
20260507211201 73 74 4.0 6.0 0.00 0.00 0.00 64 1018.0
20260507210702 73 25 4.0 5.0 0.00 0.00 0.00 63 1018.0
20260507210202 73 353 4.0 4.0 0.00 0.00 0.00 63 1018.0
20260507205701 73 32 5.0 7.0 0.00 0.00 0.00 62 1018.0
20260507205202 74 303 5.0 7.0 0.00 0.00 0.00 62 1018.0
20260507204703 74 51 6.0 9.0 0.00 0.00 0.00 61 1018.0
20260507204201 74 64 5.0 6.0 0.00 0.00 0.00 61 1018.0
20260507203701 74 148 5.0 6.0 0.00 0.00 0.00 61 1018.0
20260507203201 75 74 5.0 7.0 0.00 0.00 0.00 60 1018.0
20260507202703 75 28 5.0 6.0 0.00 0.00 0.00 60 1018.0
20260507202202 76 52 5.0 6.0 0.00 0.00 0.00 59 1018.0
20260507201701 76 56 5.0 10.0 0.00 0.00 0.00 58 1018.0
20260507201201 76 203 6.0 10.0 0.00 0.00 0.00 58 1018.0
20260507200703 76 32 10.0 10.0 0.00 0.00 0.00 57 1018.0
20260507200201 76 138 6.0 9.0 0.00 0.00 0.00 58 1018.0
20260507195701 76 24 6.0 9.0 0.00 0.00 0.00 58 1018.0
20260507195201 77 56 5.0 9.0 0.00 0.00 0.00 57 1018.0
20260507194701 77 340 5.0 9.0 0.00 0.00 0.00 57 1018.0
20260507194201 77 28 2.0 5.0 0.00 0.00 0.00 56 1018.0
20260507193701 77 48 4.0 8.0 0.00 0.00 0.00 56 1018.0
20260507193201 77 294 4.0 8.0 0.00 0.00 0.00 56 1018.0
20260507192701 77 38 2.0 3.0 0.00 0.00 0.00 56 1018.0
20260507192202 77 152 5.0 10.0 0.00 0.00 0.00 56 1018.0
20260507191701 77 99 3.0 5.0 0.00 0.00 0.00 56 1018.0
20260507191201 78 345 4.0 7.0 0.00 0.00 0.00 55 1018.0
20260507190702 78 84 4.0 7.0 0.00 0.00 0.00 55 1018.0
20260507190202 78 59 4.0 7.0 0.00 0.00 0.00 54 1018.0
20260507185701 77 286 5.0 11.0 0.00 0.00 0.00 54 1018.0
20260507185202 77 74 6.0 11.0 0.00 0.00 0.00 55 1018.0
20260507184701 77 354 7.0 11.0 0.00 0.00 0.00 54 1018.0
20260507184202 78 329 8.0 14.0 0.00 0.00 0.00 53 1018.0
20260507183702 79 68 8.0 12.0 0.00 0.00 0.00 53 1018.0
20260507183202 79 7 8.0 12.0 0.00 0.00 0.00 52 1018.0
20260507182701 79 344 4.0 7.0 0.00 0.00 0.00 52 1018.0
20260507182201 79 73 4.0 7.0 0.00 0.00 0.00 53 1018.0
20260507181701 79 79 5.0 9.0 0.00 0.00 0.00 53 1018.0
20260507181202 79 267 5.0 9.0 0.00 0.00 0.00 53 1018.0
20260507180702 79 329 7.0 8.0 0.00 0.00 0.00 52 1018.0
20260507180201 79 313 8.0 12.0 0.00 0.00 0.00 52 1018.0
20260507175703 79 322 8.0 12.0 0.00 0.00 0.00 52 1018.0
20260507175202 79 46 9.0 12.0 0.00 0.00 0.00 54 1019.0
20260507174702 78 278 4.0 8.0 0.00 0.00 0.00 54 1019.0
20260507174202 78 262 6.0 8.0 0.00 0.00 0.00 54 1019.0
20260507173701 79 27 8.0 8.0 0.00 0.00 0.00 53 1019.0
20260507173202 79 51 7.0 11.0 0.00 0.00 0.00 53 1019.0
20260507172701 79 75 5.0 7.0 0.00 0.00 0.00 52 1019.0
20260507172201 79 23 5.0 10.0 0.00 0.00 0.00 51 1019.0
20260507171705 79 44 7.0 10.0 0.00 0.00 0.00 52 1019.0
20260507171202 79 108 6.0 8.0 0.00 0.00 0.00 51 1019.0
20260507170702 79 83 4.0 9.0 0.00 0.00 0.00 50 1019.0
20260507170201 79 35 5.0 8.0 0.00 0.00 0.00 50 1019.0
20260507165702 79 347 8.0 8.0 0.00 0.00 0.00 48 1019.0
20260507165201 78 67 5.0 9.0 0.00 0.00 0.00 49 1019.0
20260507164701 78 356 6.0 9.0 0.00 0.00 0.00 51 1019.0
20260507164201 78 84 9.0 14.0 0.00 0.00 0.00 51 1019.0
20260507163701 79 66 9.0 14.0 0.00 0.00 0.00 49 1019.0
20260507163202 80 345 6.0 9.0 0.00 0.00 0.00 50 1019.0
20260507162702 80 184 5.0 9.0 0.00 0.00 0.00 50 1019.0
20260507162201 80 320 4.0 7.0 0.00 0.00 0.00 51 1020.0
20260507161702 80 274 2.0 4.0 0.00 0.00 0.00 53 1020.0
20260507161202 78 102 9.0 14.0 0.00 0.00 0.00 53 1020.0
20260507160701 78 11 9.0 14.0 0.00 0.00 0.00 54 1020.0
20260507160201 78 3 14.0 14.0 0.00 0.00 0.00 54 1020.0
20260507155708 78 337 8.0 11.0 0.00 0.00 0.00 53 1020.0
20260507155204 78 109 7.0 9.0 0.00 0.00 0.00 54 1020.0
20260507154702 78 32 7.0 11.0 0.00 0.00 0.00 55 1020.0
20260507154203 78 187 7.0 11.0 0.00 0.00 0.00 54 1020.0
20260507153702 79 15 5.0 6.0 0.00 0.00 0.00 53 1020.0
20260507153202 78 292 4.0 9.0 0.00 0.00 0.00 54 1021.0
20260507152701 78 11 4.0 8.0 0.00 0.00 0.00 53 1021.0
20260507151702 78 288 6.0 13.0 0.00 0.00 0.00 54 1021.0
20260507151201 78 71 8.0 13.0 0.00 0.00 0.00 53 1021.0
20260507150701 78 33 5.0 9.0 0.00 0.00 0.00 53 1021.0
20260507150201 78 92 3.0 6.0 0.00 0.00 0.00 53 1021.0
20260507145702 78 131 3.0 6.0 0.00 0.00 0.00 53 1021.0
20260507145201 78 68 7.0 11.0 0.00 0.00 0.00 54 1021.0
20260507144702 78 345 8.0 10.0 0.00 0.00 0.00 54 1021.0
20260507144202 78 357 7.0 9.0 0.00 0.00 0.00 52 1021.0
20260507143701 77 50 5.0 9.0 0.00 0.00 0.00 53 1021.0
20260507143201 77 335 5.0 9.0 0.00 0.00 0.00 55 1022.0
20260507142702 76 162 9.0 9.0 0.00 0.00 0.00 54 1022.0
20260507142202 76 64 8.0 13.0 0.00 0.00 0.00 54 1022.0
20260507141703 76 37 8.0 13.0 0.00 0.00 0.00 54 1022.0
20260507141201 76 18 6.0 12.0 0.00 0.00 0.00 55 1022.0
20260507140702 76 68 6.0 12.0 0.00 0.00 0.00 54 1022.0
20260507140201 76 50 6.0 12.0 0.00 0.00 0.00 56 1022.0
20260507135702 76 11 5.0 10.0 0.00 0.00 0.00 57 1022.0
20260507135201 76 13 7.0 10.0 0.00 0.00 0.00 56 1022.0
20260507134701 76 114 6.0 7.0 0.00 0.00 0.00 56 1022.0
20260507134201 75 253 5.0 10.0 0.00 0.00 0.00 57 1022.0
20260507133702 75 57 7.0 10.0 0.00 0.00 0.00 58 1022.0
20260507133202 73 115 4.0 4.0 0.00 0.00 0.00 61 1022.0
20260507132701 73 48 3.0 5.0 0.00 0.00 0.00 65 1022.0
20260507132202 73 41 3.0 5.0 0.00 0.00 0.00 65 1022.0
20260507131701 73 64 3.0 7.0 0.00 0.00 0.00 65 1022.0
20260507131202 73 53 2.0 4.0 0.00 0.00 0.00 67 1022.0
20260507130201 71 30 3.0 7.0 0.00 0.00 0.00 68 1022.0
20260507125701 71 63 5.0 7.0 0.00 0.00 0.00 69 1022.0
20260507125202 71 78 4.0 6.0 0.00 0.00 0.00 69 1022.0
20260507124702 71 333 3.0 6.0 0.00 0.00 0.00 68 1022.0
20260507124201 72 155 3.0 6.0 0.00 0.00 0.00 68 1022.0
20260507123702 70 51 3.0 6.0 0.00 0.00 0.00 68 1022.0
20260507123202 70 104 3.0 6.0 0.00 0.00 0.00 69 1022.0
20260507122701 70 143 1.0 3.0 0.00 0.00 0.00 70 1022.0
20260507122202 67 98 4.0 6.0 0.00 0.00 0.00 72 1022.0
20260507121702 67 129 3.0 4.0 0.00 0.00 0.00 73 1022.0
20260507121203 67 99 3.0 4.0 0.00 0.00 0.00 75 1022.0
20260507120702 66 53 2.0 5.0 0.00 0.00 0.00 75 1022.0
20260507120201 66 80 2.0 3.0 0.00 0.00 0.00 76 1022.0
20260507115703 65 352 2.0 2.0 0.00 0.00 0.00 78 1023.0
20260507115202 65 64 3.0 4.0 0.00 0.00 0.00 76 1023.0
20260507114702 66 47 3.0 3.0 0.00 0.00 0.00 75 1023.0
20260507114201 66 78 3.0 5.0 0.00 0.00 0.00 75 1023.0
20260507113702 66 66 2.0 5.0 0.00 0.00 0.00 75 1023.0
20260507113202 66 53 4.0 5.0 0.00 0.00 0.00 74 1023.0
20260507112701 66 36 4.0 5.0 0.00 0.00 0.00 74 1023.0
20260507112201 66 67 3.0 3.0 0.00 0.00 0.00 74 1023.0
20260507111702 66 88 3.0 3.0 0.00 0.00 0.00 74 1023.0
20260507111202 65 96 2.0 4.0 0.00 0.00 0.00 74 1023.0
20260507110702 65 180 2.0 3.0 0.00 0.00 0.00 75 1023.0
20260507110203 64 50 2.0 5.0 0.00 0.00 0.00 76 1023.0
20260507105701 64 50 2.0 5.0 0.00 0.00 0.00 76 1023.0
20260507105201 64 51 1.0 2.0 0.00 0.00 0.00 76 1023.0
20260507104702 63 82 1.0 3.0 0.00 0.00 0.00 77 1023.0
20260507104202 63 82 1.0 3.0 0.00 0.00 0.00 78 1023.0
20260507103702 63 63 1.0 2.0 0.00 0.00 0.00 78 1023.0
20260507103201 61 41 1.0 2.0 0.00 0.00 0.00 78 1022.0
20260507102701 61 72 1.0 2.0 0.00 0.00 0.00 80 1023.0
20260507102202 60 69 0.0 0.0 0.00 0.00 0.00 80 1023.0
20260507101702 60 79 1.0 2.0 0.00 0.00 0.00 82 1023.0
20260507101202 60 94 1.0 2.0 0.00 0.00 0.00 83 1022.0
20260507100702 59 87 1.0 2.0 0.00 0.00 0.00 84 1022.0
20260507100202 59 123 1.0 2.0 0.00 0.00 0.00 84 1023.0
20260507095702 59 82 1.0 2.0 0.00 0.00 0.00 85 1022.0
20260507095202 59 112 1.0 2.0 0.00 0.00 0.00 85 1022.0
20260507094701 59 102 0.0 0.0 0.00 0.00 0.00 85 1022.0
20260507094202 59 83 0.0 0.0 0.00 0.00 0.00 86 1022.0
20260507093702 59 36 1.0 2.0 0.00 0.00 0.00 86 1022.0
20260507093202 59 74 1.0 2.0 0.00 0.00 0.00 86 1022.0
20260507092701 58 97 1.0 3.0 0.00 0.00 0.00 87 1022.0
20260507092201 58 74 0.0 0.0 0.00 0.00 0.00 88 1022.0
20260507091702 58 104 0.0 0.0 0.00 0.00 0.00 88 1022.0
20260507091201 57 98 0.0 0.0 0.00 0.00 0.00 89 1022.0
20260507090702 57 107 0.0 0.0 0.00 0.00 0.00 90 1022.0
20260507090201 57 97 0.0 0.0 0.00 0.00 0.00 91 1022.0
20260507085702 57 96 0.0 0.0 0.00 0.00 0.00 90 1022.0
20260507085201 57 96 0.0 0.0 0.00 0.00 0.00 90 1022.0
20260507084702 58 95 0.0 0.0 0.00 0.00 0.00 90 1022.0
20260507084202 58 95 0.0 0.0 0.00 0.00 0.00 89 1022.0
20260507083702 58 93 0.0 0.0 0.00 0.00 0.00 89 1022.0
20260507083201 58 94 0.0 0.0 0.00 0.00 0.00 89 1022.0
20260507082702 59 91 0.0 0.0 0.00 0.00 0.00 89 1022.0
20260507082202 59 88 0.0 0.0 0.00 0.00 0.00 89 1022.0
20260507081702 59 62 0.0 0.0 0.00 0.00 0.00 89 1022.0
20260507081203 59 62 0.0 0.0 0.00 0.00 0.00 89 1022.0
20260507080704 59 290 0.0 0.0 0.00 0.00 0.00 89 1022.0
20260507080201 59 99 0.0 0.0 0.00 0.00 0.00 89 1022.0
20260507075701 59 97 0.0 0.0 0.00 0.00 0.00 89 1022.0
20260507075202 59 126 0.0 0.0 0.00 0.00 0.00 89 1022.0
20260507074701 59 82 0.0 0.0 0.00 0.00 0.00 89 1022.0
20260507074202 59 123 0.0 0.0 0.00 0.00 0.00 89 1022.0
20260507073701 59 77 0.0 0.0 0.00 0.00 0.00 90 1022.0
20260507073201 59 109 0.0 0.0 0.00 0.00 0.00 90 1023.0
20260507072703 59 158 0.0 0.0 0.00 0.00 0.00 90 1023.0
20260507072201 59 160 0.0 0.0 0.00 0.00 0.00 90 1023.0
20260507071701 59 181 0.0 0.0 0.00 0.00 0.00 90 1023.0
20260507071203 60 290 0.0 0.0 0.00 0.00 0.00 90 1023.0
20260507070702 60 91 0.0 0.0 0.00 0.00 0.00 90 1023.0
20260507070201 60 99 0.0 0.0 0.00 0.00 0.00 90 1023.0
20260507065703 60 97 0.0 0.0 0.00 0.00 0.00 90 1023.0
20260507065201 60 283 0.0 0.0 0.00 0.00 0.00 89 1023.0
20260507064702 60 267 0.0 0.0 0.00 0.00 0.00 89 1023.0
20260507064202 60 123 1.0 2.0 0.00 0.00 0.00 90 1023.0
20260507063701 60 80 0.0 0.0 0.00 0.00 0.00 90 1023.0
20260507063202 60 87 0.0 0.0 0.00 0.00 0.00 90 1023.0
20260507062701 60 27 1.0 2.0 0.00 0.00 0.00 90 1023.0
20260507062202 60 67 0.0 0.0 0.00 0.00 0.00 90 1023.0
20260507061701 60 131 0.0 0.0 0.00 0.00 0.00 90 1023.0
20260507061201 61 115 0.0 0.0 0.00 0.00 0.00 90 1023.0
20260507060701 61 87 0.0 0.0 0.00 0.00 0.00 90 1023.0
20260507060203 61 91 0.0 0.0 0.00 0.00 0.00 90 1023.0
20260507055701 61 108 0.0 0.0 0.00 0.00 0.00 90 1023.0
20260507055201 61 74 0.0 0.0 0.00 0.00 0.00 90 1023.0